Showing default

SATELIOT_4, 60537

Orbit data source: Space-Track

SATELIOT_4, 60537 is a payload satellite owned by Sateliot (ES) in SSO that was launched on Fri, 16 Aug 2024 UTC via an FALCON 9 launch vehicle from the Air Force Western Test Range (AFWTR). Payload-class satellites include a variety of spacecraft equipped with specific instruments for various scientific and technological missions. These include communications satellites like Starlink; space stations such as the ISS; scientific satellites like the Hubble; Earth observation satellites from companies like Planet Labs, Umbra, and HawkEye 360; GPS; miniature CubeSats for education and research; and military/defense satellites.

Loading next visibility...
Identifier
60537, 2024-149BX
Orbit
SSO
Country
Flag of ESES / SPN
Related business
Manufacturer
Endurosat
Mission
Operational Commercial Communications
Bus & Motor
CUBESAT 6U, Unknown motor
Mass
7.407 kg wet, 7.407 kg dry
Launch date (UTC)
2024-08-16 (2 years ago)
Launch vehicle
FALCON 9
Launch site
Air Force Western Test Range (AFWTR)
Object type
Payload
Rocket body
Debris
Shape & HBR
Box + 2 Pan, 0.2 m
Radar Cross Section
0.092 m², Medium (>0.1 m² and < 1m²)

Expand to show TLE details & history
Last TLE update: 10 hours ago

TLE from 10 hours ago
0 SATELIOT_4
1 60537U 24149BX  26127.18560041  .00001173  00000-0  10822-3 0  9992
2 60537  97.6737 202.4481 0002627 140.5846 219.5567 14.96520685 93843
Epoch: 2026-05-07T04:27Z
TLE epoch observation values (Epoch: 2026-05-07T04:27:15.875Z)
Latitude
-0.00003°
Longitude
-89.40341°
Altitude
582.117 km
Speed
7.569 km/s
True Right ascension
13h 29m 47s
True Declination
0° 00' 00"
Sunlit
Object was in full shadow at epoch
Visualization orbit readout
Latitude
Unknown
Longitude
Unknown
Altitude
Unknown
Speed
Unknown
Apparent Right ascension
Unknown
Apparent Declination
Unknown
Sunlit
N/A
Visualization observer readout
Local Sidereal Time
22:19:29
Azimuth
Unknown
Elevation
Unknown
Doppler factor
Unknown
Orbital elements
Apogee altitude
576.492 km
Perigee altitude
572.839 km
Semi-major axis
6,952.802 km
Eccentricity
0.00026
Inclination
97.6737°
RAAN
202.4481°
Arg. of periapsis
140.5846°
True anomaly
219.53753°
Mean anomaly
219.5567°
Eccentric anomaly
219.54712°
Mean motion
3.74372 °/min
Orbital period
96.16 mins
BSTAR
0.00010822
Loading maneuver chart data...
Computing Atmospheric mass density...
Loading historical data...
Loading historical data...
Loading historical data...
Loading historical data...
Loading historical data...
Loading historical data...
Loading historical data...

Documentation

Showing up to 5 results
|